Lapse_Rate
5.9 6.1 6.1 6.7 7.2 8.2 7.6 8.2 8.3 7.4 7.2 6.6 6.7 6.4 6.1 5.1 4.8 4.9 4.9 5.5 6.1 5.7 5.8 5.9 5.8 6.0 5.6 5.8 5.8 5.8 5.9 5.8 5.6 5.6 5.7 5.8 5.9 5.9 5.9 5.9 5.9 5.9 5.9 6.0
6.3 6.1 6.7 7.1 7.6 7.5 7.5 7.9 8.4 7.2 7.2 7.1 7.1 6.9 6.5 5.9 5.7 5.2 5.1 5.1 5.6 4.8 5.0 6.1 5.9 6.2 6.2 6.0 5.8 5.7 5.9 5.8 5.8 5.4 5.5 5.6 5.6 6.0 5.9 6.3 6.5 6.4 6.3 6.3
6.7 6.9 7.2 7.2 7.6 7.2 7.8 8.1 9.1 8.2 7.0 7.0 7.0 7.5 6.9 6.2 5.6 5.6 5.1 5.3 4.9 5.0 5.1 5.8 6.2 6.2 6.2 6.1 6.0 6.1 5.9 5.8 5.7 5.7 5.5 5.6 6.0 6.0 6.0 6.2 6.5 6.5 6.5 6.4
7.0 7.3 7.3 7.2 7.2 7.5 8.7 8.4 8.1 7.8 7.8 9.2 7.4 9.2 7.5 6.6 5.9 5.7 5.3 5.0 5.2 5.2 5.0 5.0 6.2 6.2 6.2 6.2 6.0 5.9 5.9 5.9 5.8 5.8 5.7 5.6 5.9 5.9 5.8 6.2 6.2 6.3 6.2 6.1
6.5 7.1 6.9 6.9 6.9 7.5 8.2 9.3 8.2 8.0 8.1 8.4 8.2 8.0 9.4 7.2 6.5 5.9 5.6 5.9 5.5 5.3 5.5 6.3 6.4 6.4 6.3 6.0 5.9 6.1 6.0 6.0 6.1 5.9 5.9 5.4 5.5 5.9 6.0 6.0 6.0 5.9 6.0 5.9
7.1 7.3 7.2 7.3 7.5 7.4 7.8 8.0 7.8 7.8 8.4 9.3 8.8 8.3 9.4 8.4 7.7 6.8 6.0 5.9 6.1 5.8 5.6 5.7 6.5 6.2 6.0 6.0 5.7 5.9 6.2 6.0 6.1 6.2 5.9 5.8 5.3 5.6 5.9 5.9 5.7 5.6 5.7 5.7
6.8 7.0 6.9 7.3 7.6 7.7 7.7 8.8 9.1 9.4 9.7 9.7 9.3 8.2 8.8 8.0 7.8 7.5 7.2 7.1 6.7 6.6 6.0 5.9 6.4 6.3 6.0 5.9 5.9 5.9 6.0 6.2 6.1 6.2 6.2 6.1 5.9 5.4 5.6 5.8 5.7 5.5 5.4 5.5
7.4 7.5 6.9 6.7 7.3 7.5 7.4 8.8 9.4 9.3 9.8 9.8 9.3 8.3 8.6 8.2 7.8 7.9 7.6 6.9 6.7 6.9 6.6 6.5 6.3 6.7 6.5 6.3 6.1 6.0 6.0 6.1 6.3 6.2 6.4 6.2 6.2 5.7 5.3 5.5 5.7 5.6 5.4 5.4
8.5 7.8 7.6 7.5 7.5 7.7 7.8 7.7 8.7 9.4 9.5 9.7 9.5 8.5 8.2 8.3 8.2 8.1 7.8 7.4 7.0 7.0 6.6 6.4 6.1 6.9 6.9 6.8 6.9 6.5 6.4 6.3 6.2 6.2 6.4 6.4 6.3 6.1 5.5 5.3 5.4 5.6 5.6 5.6
8.5 8.7 7.9 7.5 7.7 7.5 8.1 8.5 8.4 8.9 9.5 9.5 9.6 9.3 9.3 9.0 8.6 8.4 7.9 7.7 7.3 7.1 6.5 6.4 6.4 6.6 7.2 7.2 7.0 7.0 6.6 6.6 6.6 6.2 6.3 6.3 6.4 6.2 6.0 5.5 5.2 5.4 5.6 5.4
8.2 7.8 9.2 8.1 7.3 7.7 7.6 7.6 7.9 9.3 8.9 9.9 9.9 9.6 8.8 8.7 8.6 8.2 8.2 8.2 7.8 7.7 7.3 6.8 6.4 6.7 6.8 6.8 7.1 7.1 6.7 6.7 6.5 6.4 6.3 6.2 6.2 6.1 5.8 5.8 5.6 5.4 5.4 5.6
8.3 8.4 9.1 7.8 7.8 8.0 8.1 7.9 8.1 8.2 8.5 9.1 9.6 9.7 9.3 8.4 8.2 8.5 8.2 8.7 8.5 8.2 7.9 7.4 7.0 6.8 6.7 6.8 7.0 7.0 7.0 7.0 6.9 6.7 6.5 6.4 6.2 6.0 5.9 5.9 6.0 5.9 5.6 5.6
7.9 8.2 9.3 9.4 8.4 7.7 7.4 7.6 8.0 8.2 8.8 9.4 9.1 8.9 8.7 8.2 8.5 8.4 8.5 8.7 8.7 8.4 8.0 7.6 7.3 7.4 7.4 7.3 7.2 7.2 7.3 7.2 6.9 6.8 6.6 6.4 6.5 6.4 6.2 6.2 6.0 6.0 5.9 5.8
7.9 8.4 9.2 9.6 8.7 8.7 7.8 7.7 8.0 8.4 8.8 9.1 9.0 8.4 9.7 8.3 8.5 8.2 8.5 8.6 8.6 8.7 8.3 8.1 8.0 7.8 7.6 7.6 7.5 7.4 7.2 6.9 7.0 7.1 6.9 6.7 6.7 6.6 6.4 6.2 6.2 6.1 6.0 5.8
7.6 8.3 8.7 8.7 9.6 9.6 8.7 8.2 8.0 7.9 7.9 9.0 9.3 8.5 8.5 8.7 8.2 8.3 8.6 8.7 8.5 8.5 8.5 8.4 8.4 8.1 7.9 7.8 7.7 7.5 7.1 7.0 7.0 6.9 6.9 7.1 7.1 6.6 6.5 6.4 6.5 6.3 6.2 6.3
7.5 8.4 8.2 8.4 9.0 8.8 8.9 8.5 8.4 8.2 8.1 8.2 9.3 9.5 9.1 7.7 7.3 7.9 8.7 8.7 8.6 8.3 8.4 8.7 8.5 8.1 7.6 7.5 7.6 7.7 7.6 7.4 7.4 7.3 7.3 7.1 7.0 6.8 6.8 6.8 6.8 6.7 6.4 6.3
7.3 7.9 8.5 9.4 9.4 8.8 9.0 8.9 8.5 8.3 8.2 8.4 8.6 8.6 8.0 6.2 7.0 7.5 8.2 8.5 8.3 8.2 8.4 8.4 8.5 8.2 8.0 7.7 7.5 7.3 7.7 7.6 7.5 7.3 7.3 7.0 7.0 6.9 6.9 6.9 7.0 7.1 7.1 7.0
7.6 7.2 8.0 9.2 9.4 9.7 9.2 8.5 8.2 8.3 7.8 6.9 7.2 7.5 6.4 6.5 7.1 7.5 7.9 8.4 8.2 8.2 8.1 8.5 8.5 8.3 8.1 8.0 7.8 7.7 7.4 7.3 7.2 7.2 7.2 7.2 7.1 6.9 6.9 7.1 7.3 7.1 6.9 6.9
7.5 7.1 8.3 9.0 9.4 8.7 7.9 7.8 7.7 7.8 6.7 7.9 6.8 7.8 7.3 7.2 7.3 7.6 7.8 8.1 8.5 8.6 8.5 7.9 8.2 8.2 8.2 8.1 7.9 7.7 7.6 7.3 7.2 7.2 7.1 7.1 6.9 7.3 7.2 7.4 7.3 6.9 7.2 7.4
7.6 7.0 7.3 9.0 9.3 9.5 8.7 8.4 8.5 8.1 7.6 7.9 7.9 7.9 7.6 7.1 6.9 7.2 7.7 8.0 8.3 8.6 8.6 8.4 8.2 8.3 8.2 8.0 7.6 7.7 7.7 7.6 7.4 7.2 6.5 6.0 5.9 7.4 7.3 7.1 6.8 6.8 6.5 7.1
7.1 6.7 7.7 8.3 9.1 8.2 8.2 8.9 8.6 8.0 8.3 8.1 7.9 8.0 7.6 6.6 6.7 6.3 6.6 7.1 7.3 7.7 8.1 8.1 8.0 8.1 8.0 7.5 7.2 7.5 7.8 7.7 7.2 7.1 7.1 6.5 5.9 5.9 7.0 7.2 7.0 6.9 6.6 6.5
8.3 8.1 8.1 8.7 9.2 8.5 8.7 8.3 8.3 8.2 8.4 8.3 8.1 8.2 8.2 7.5 6.2 5.9 5.8 6.1 6.1 6.5 7.3 7.8 8.0 7.9 7.8 7.6 7.4 7.4 7.6 7.5 6.9 6.8 6.7 6.8 6.7 6.3 5.5 6.5 6.1 7.0 7.0 7.0
7.5 7.3 8.0 8.7 8.4 8.7 8.8 8.6 8.0 8.1 7.5 8.3 8.3 8.2 8.3 7.6 6.7 6.4 5.8 5.7 6.0 5.7 5.8 6.7 7.4 7.7 7.9 7.9 7.9 7.9 7.7 7.4 7.1 7.0 7.0 7.1 6.8 6.9 6.5 6.9 7.2 6.8 6.9 7.2
7.0 7.2 7.3 7.5 8.1 8.3 8.6 8.2 8.0 8.0 7.2 7.2 7.3 7.4 7.4 7.4 6.9 6.8 6.8 6.4 5.9 6.1 5.7 5.9 6.2 6.9 7.2 7.4 7.7 7.8 7.9 7.8 7.5 7.3 7.2 6.9 6.5 6.7 7.1 7.2 7.0 7.6 7.6 7.5
7.0 7.1 7.3 7.8 8.0 8.2 8.2 8.2 7.8 7.5 7.4 7.9 7.7 7.1 6.9 7.4 7.2 6.9 6.9 6.8 6.6 6.4 6.2 6.0 6.1 6.3 6.5 6.7 7.1 7.1 7.2 7.2 7.3 6.8 7.0 7.4 6.9 6.9 7.1 7.1 7.3 7.4 7.2 7.3
7.0 7.2 7.2 7.0 7.5 7.7 8.0 7.9 7.5 7.2 7.4 7.6 7.7 7.4 7.1 6.7 6.7 6.9 6.8 6.7 6.7 6.5 6.3 6.3 6.3 6.1 6.3 6.3 6.4 6.5 6.9 7.0 6.9 7.3 7.1 7.1 7.0 7.0 7.0 6.9 6.9 7.4 7.4 7.3
Wind_Speed
17 13 16 19 18 10 6 9 7 5 2 7 8 7 9 13 15 17 17 18 18 17 17 16 16 14 15 14 14 13 12 11 8 7 5 5 7 6 5 6 5 6 7 8
15 20 20 17 16 15 10 10 9 5 5 6 3 8 10 14 17 18 19 19 19 18 18 18 17 17 16 16 14 14 13 12 10 7 5 3 6 7 5 5 6 6 7 8
23 23 21 18 18 15 17 14 9 7 5 10 7 14 10 12 15 16 17 18 18 19 20 19 18 18 17 17 16 14 14 13 12 10 6 6 4 5 6 6 6 8 7 7
24 23 23 20 20 19 19 16 9 8 8 6 2 1 13 13 16 19 20 19 20 21 20 20 20 19 18 18 17 16 14 14 12 12 9 8 8 8 7 6 5 6 6 6
24 23 20 22 22 20 18 9 12 12 12 11 12 7 5 14 14 19 22 23 22 22 22 22 22 21 19 18 17 17 15 14 13 13 10 9 9 7 7 6 7 5 6 5
24 18 18 24 22 21 19 5 9 11 13 13 15 7 7 11 14 18 20 23 22 22 22 23 21 21 19 18 18 17 17 15 15 14 14 12 10 8 8 7 7 6 6 6
24 22 18 17 22 21 23 17 10 12 12 13 6 7 13 1 5 9 21 24 24 22 22 22 23 21 20 21 20 17 17 17 16 15 15 15 13 12 10 10 8 6 5 6
19 25 23 18 26 22 23 23 15 18 13 14 13 7 6 3 2 8 13 20 23 23 22 23 24 23 22 21 21 19 19 17 18 17 16 14 14 10 9 10 8 8 6 5
21 24 25 17 20 23 23 24 23 22 17 13 12 14 9 10 5 8 12 15 21 24 24 24 24 23 22 22 22 22 20 19 19 19 16 15 13 12 10 9 10 8 7 6
9 14 16 22 16 19 21 18 20 16 23 19 17 16 8 12 9 6 8 13 18 23 24 23 22 22 21 22 21 22 22 20 20 19 17 16 15 15 12 10 11 10 9 9
12 12 16 14 21 23 15 15 18 18 19 16 16 16 12 14 2 4 4 8 15 19 22 22 21 21 21 20 21 20 21 20 20 18 17 16 17 16 14 12 12 11 11 10
15 10 14 21 20 21 25 24 22 16 23 18 15 14 8 8 1 5 5 3 8 18 21 21 20 20 19 20 20 20 20 20 16 17 16 17 17 17 16 15 14 13 11 12
0 12 13 18 11 12 19 23 25 23 17 20 17 17 12 9 5 6 6 5 3 10 15 18 18 18 19 19 19 19 18 20 19 17 19 18 18 18 18 17 15 13 12 12
4 14 16 15 18 16 20 23 24 24 18 19 20 22 15 9 1 6 7 5 3 7 12 15 16 15 15 16 16 16 17 17 18 18 18 17 19 18 17 16 15 13 13 13
5 11 16 21 14 13 20 20 25 25 25 22 18 22 19 14 3 7 6 6 6 5 7 11 12 11 12 12 13 13 14 14 16 16 18 17 15 16 16 15 15 16 14 12
8 7 7 15 18 15 16 21 19 25 25 22 22 16 2 9 6 5 5 5 7 8 8 10 9 4 9 10 10 11 12 12 13 12 16 14 13 14 15 15 15 14 15 13
9 6 7 14 14 17 20 19 18 15 16 19 22 20 7 7 9 7 5 9 8 7 8 8 6 6 7 3 8 11 10 11 13 13 13 13 13 15 14 16 15 16 15 14
10 8 7 9 7 16 5 3 6 10 5 4 2 8 10 11 11 10 9 7 8 8 8 8 7 7 7 6 6 6 7 9 11 12 12 12 12 13 11 12 13 12 12 13
14 9 6 9 12 7 8 7 7 14 10 2 2 8 11 11 12 9 9 9 8 8 8 8 7 8 8 8 6 3 3 8 8 7 3 8 10 11 11 13 11 9 10 11
12 11 7 10 12 13 12 8 1 4 8 7 6 10 11 8 5 3 5 7 8 7 7 7 7 8 10 9 9 10 11 11 8 4 6 9 9 5 9 11 8 10 10 12
9 7 13 12 11 6 6 2 4 7 4 6 6 7 8 5 3 11 7 6 7 5 5 5 7 9 8 7 7 10 10 9 4 5 6 5 5 4 9 7 7 9 11 10
8 9 8 13 12 8 10 4 4 4 4 7 7 7 11 13 12 10 8 6 6 6 6 7 6 8 9 8 7 8 9 8 5 4 2 0 3 2 6 3 4 6 7 9
4 6 5 4 4 5 7 8 7 6 5 11 11 10 11 11 11 10 8 7 6 6 6 5 6 7 6 8 6 9 7 7 7 7 6 5 3 2 5 2 1 3 3 5
2 4 1 6 5 6 7 8 9 10 9 12 14 14 12 11 9 9 8 7 6 6 7 7 7 8 7 6 8 8 7 6 6 7 7 4 3 2 5 3 3 3 3 4
2 7 4 4 6 6 7 7 8 7 7 11 12 11 11 10 10 8 6 5 3 3 3 3 3 5 6 6 7 7 8 9 6 6 6 7 6 8 6 6 5 6 6 4
0 3 3 2 9 4 6 4 6 7 8 8 8 9 9 8 7 5 5 4 2 2 1 3 3 2 2 2 3 5 6 7 7 8 7 7 8 8 7 6 5 6 5 9
Wind_Direction
200 214 215 208 219 238 295 242 180 119 121 215 222 240 196 180 196 189 187 187 189 191 178 176 183 177 172 177 177 178 180 165 171 175 167 191 174 161 154 148 140 151 153 158
191 222 213 225 222 225 226 229 197 129 147 236 217 249 206 186 201 202 194 187 190 190 183 179 182 183 186 181 186 182 180 176 183 177 183 248 174 166 154 140 133 148 160 155
214 214 223 218 222 228 232 229 219 272 161 228 268 245 201 194 194 202 205 193 192 192 188 184 183 189 190 188 190 192 190 182 195 183 173 168 168 159 175 162 159 148 154 166
222 223 213 216 226 216 224 219 261 221 242 260 234 316 177 179 194 195 202 199 195 192 195 186 188 192 194 194 190 194 194 187 193 192 180 181 190 180 178 179 153 158 177 190
213 220 203 216 217 213 239 219 227 246 250 262 214 250 146 172 200 201 202 204 200 192 191 194 192 191 194 194 194 193 192 196 200 192 205 184 207 189 180 177 153 217 169 216
224 204 217 223 219 224 227 212 230 235 247 247 247 235 253 180 220 200 200 202 202 196 194 193 194 193 196 195 196 196 189 197 199 201 201 204 197 212 179 186 177 195 199 187
215 208 216 234 218 222 220 210 215 216 216 235 197 240 249 193 164 214 195 201 199 200 197 193 191 194 197 200 198 195 192 196 197 201 203 203 200 206 207 190 204 198 200 204
208 207 203 203 221 202 215 221 227 221 226 227 180 238 228 89 357 182 202 198 199 199 200 197 195 194 195 200 198 198 193 199 196 202 208 208 208 204 215 207 212 207 205 208
211 219 188 212 212 221 201 221 234 245 249 254 211 221 247 243 249 198 191 194 198 200 201 198 196 194 195 196 196 198 195 199 194 203 202 208 207 219 207 209 217 204 217 199
236 232 187 205 228 221 241 208 223 231 236 229 239 242 238 176 164 135 195 207 204 201 202 200 198 195 194 193 194 198 198 196 194 200 201 203 208 205 204 202 206 214 204 230
248 238 203 201 208 214 200 233 223 227 229 233 232 234 206 230 299 311 300 225 202 199 201 199 197 195 196 198 194 197 198 196 196 198 199 205 205 206 206 207 204 213 213 201
222 241 231 205 227 225 221 215 223 220 217 230 255 229 93 123 160 2 14 351 235 191 193 193 191 189 188 201 196 194 200 199 197 190 196 202 206 208 207 213 208 209 209 209
43 225 229 232 184 215 231 228 222 226 239 220 225 232 151 134 77 30 33 43 183 196 191 186 187 189 191 196 197 198 197 201 198 195 197 200 205 207 213 210 213 208 206 211
252 249 239 225 225 208 213 227 225 226 223 228 219 237 230 184 169 16 56 54 92 189 186 187 186 194 198 199 200 200 198 202 200 199 203 200 206 210 212 213 210 207 210 211
322 262 233 248 266 256 201 215 223 226 233 227 230 225 242 251 16 48 10 68 86 113 172 182 186 192 202 202 200 200 206 206 206 204 207 207 201 208 216 209 213 215 213 215
324 267 274 250 234 235 246 219 216 224 230 242 249 248 233 46 89 51 47 73 82 72 47 21 6 202 208 206 208 204 203 204 209 208 213 211 206 206 208 212 209 209 214 218
297 308 267 240 204 220 233 219 222 221 221 228 234 240 255 92 55 33 29 52 60 57 58 57 45 31 3 298 210 209 210 201 200 209 215 221 219 216 215 213 210 210 214 221
264 296 279 263 201 218 127 65 257 230 148 229 255 36 53 106 86 56 36 56 62 50 52 47 42 45 36 18 344 221 204 199 200 201 202 212 225 235 232 235 225 227 225 226
230 262 268 249 220 108 132 149 170 170 156 160 164 125 122 130 109 60 52 56 55 47 48 49 46 50 47 44 34 12 167 178 199 220 249 216 222 231 237 228 228 228 233 239
223 227 266 219 260 208 104 122 103 236 161 143 156 150 158 188 221 112 70 71 68 61 58 61 60 60 55 40 54 73 57 42 48 17 86 20 276 297 254 244 239 236 239 236
170 215 221 230 242 95 66 7 211 219 103 138 160 149 170 186 56 133 122 94 77 66 69 81 73 67 62 58 72 67 66 64 31 19 6 162 246 280 262 245 245 245 245 254
212 194 202 238 232 220 4 206 261 3 65 102 107 93 113 116 122 121 114 108 95 86 67 63 75 65 61 46 56 74 63 73 75 121 116 113 294 63 243 207 237 259 267 266
259 343 316 0 33 49 35 36 5 303 82 101 90 92 110 114 118 126 127 123 112 96 88 79 83 77 53 58 37 63 42 33 41 56 67 64 38 354 288 280 227 242 250 322
331 334 278 203 79 61 47 40 30 15 69 101 108 101 94 95 96 106 109 107 108 99 96 94 88 78 71 55 51 52 34 20 59 50 31 34 84 21 26 325 346 17 0 356
285 315 145 89 108 105 61 31 32 32 59 89 79 77 100 111 106 95 94 88 76 69 96 74 71 84 88 83 62 41 46 12 21 59 56 15 38 49 21 16 5 25 73 33
273 343 329 81 133 82 90 35 34 49 48 50 70 77 65 64 71 61 94 95 73 22 348 337 356 332 337 6 67 88 64 44 27 9 36 42 5 20 21 15 21 134 131 145